Regional Weather Roundup
Issued by NWS

Home | Current Version | Previous Version | Text Only | Print | Product List | Glossary Off
Versions: 1 2 3 4 5 6 7 8 9 10 11 12 13 14 15 16 17 18 19 20 21 22 23 24 25 26 27 28 29 30 31 32 33 34 35 36 37 38 39 40 41 42 43 44 45 46 47 48 49 50

654
ASUS43 KFSD 300002
RWRSD

WEATHER ROUNDUP FOR SOUTH DAKOTA
NATIONAL WEATHER SERVICE SIOUX FALLS SD
700 PM CDT FRI JUL 29 2016

NOTE: "FAIR" INDICATES FEW OR NO CLOUDS BELOW 12,000 FEET WITH NO
SIGNIFICANT WEATHER AND/OR OBSTRUCTIONS TO VISIBILITY.


SDZ001>005-009-010-012>017-300100-
NORTHWEST AND NORTH CENTRAL SOUTH DAKOTA

CITY           SKY/WX    TMP DP  RH WIND       PRES   REMARKS
BUFFALO          N/A     83  52  34 NE10      29.94F
FAITH            N/A     78  54  43 SE10      29.99F
MOBRIDGE       PTSUNNY   84  52  33 SE10      29.96F
$$

SDZ012>016-024>037-041>051-057-063-072>074-300100-
SOUTHWEST AND SOUTH CENTRAL SOUTH DAKOTA

CITY           SKY/WX    TMP DP  RH WIND       PRES   REMARKS
RAPID CTY ARPT CLOUDY    76  57  51 SW9       30.03S
PIERRE         MOSUNNY   81  54  39 S13       29.97F
CUSTER         SUNNY     68  49  50 E8        30.15F
ELLSWORTH AFB  CLOUDY    78  57  48 S10       30.02S
PHILIP         CLOUDY    80  58  46 SE6       29.98F
PINE RIDGE     CLOUDY    75  58  55 SE9       30.02F
WINNER         FAIR      79  57  46 SE8       30.02F
$$

SDZ004>011-016>023-039-040-300100-
NORTHEAST SOUTH DAKOTA

CITY           SKY/WX    TMP DP  RH WIND       PRES   REMARKS
ABERDEEN       NOT AVBL
WATERTOWN      MOSUNNY   77  55  46 S8        30.03F
BROOKINGS      SUNNY     76  56  49 VRB5      30.04F
SISSETON         N/A     78  61  55 S6        30.00F
$$

SDZ017-020-022-023-036>040-048>070-300100-
SOUTHEAST SOUTH DAKOTA

CITY           SKY/WX    TMP DP  RH WIND       PRES   REMARKS
SIOUX FALLS    MOSUNNY   77  57  50 E7        30.03S
HURON          MOSUNNY   78  53  41 SE8       30.00S
CHAMBERLAIN    MOSUNNY   81  57  44 S9        30.00S
MITCHELL       SUNNY     81  52  36 E8        30.02S
YANKTON        SUNNY     79  54  41 E3        30.00S
$$

ABBREVIATIONS USED IN REMARKS
   TC - TEMPERATURE IN CELSIUS
  WCI - WIND CHILL INDEX
   HX - HEAT INDEX
  VSB - VISIBILITY





USA.gov is the U.S. government's official web portal to all federal, state and local government web resources and services.